📊 Raw Sensor Data
Showing records 48601 to 48625 of 85,104 total
| ID | Distance (ft) | Battery V | Battery A | Int Temp (°F) | Int Humid (%) | Ext Temp (°F) | Solar V | RSSI | SNR | Time Stamp |
|---|---|---|---|---|---|---|---|---|---|---|
| 36516 | 15.0 | 3.95 | -5 | 51 | 45 | 51 | 0.30 | -81 | 8 | 03/31/2025 07:45 PM |
| 36515 | 15.0 | 4.01 | -9 | 53 | 45 | 52 | 2.80 | -80 | 7 | 03/31/2025 07:30 PM |
| 36514 | 15.0 | 3.95 | 0 | 54 | 46 | 52 | 4.50 | -79 | 8 | 03/31/2025 07:15 PM |
| 36513 | 15.0 | 4.07 | 0 | 59 | 42 | 56 | 4.50 | -77 | 8 | 03/31/2025 07:00 PM |
| 36512 | -- | 4.05 | 17 | 59 | 43 | 58 | 4.50 | -79 | 8 | 03/31/2025 06:45 PM |
| 36511 | 15.1 | 4.01 | 0 | 59 | 44 | 56 | 4.50 | -79 | 8 | 03/31/2025 06:30 PM |
| 36510 | 15.0 | 4.01 | 0 | 60 | 44 | 58 | 5.10 | -81 | 8 | 03/31/2025 06:15 PM |
| 36509 | -- | 4.02 | 0 | 61 | 44 | 57 | 5.10 | -88 | 8 | 03/31/2025 06:00 PM |
| 36508 | -- | 4.01 | 0 | 66 | 41 | 62 | 5.10 | -83 | 8 | 03/31/2025 05:30 PM |
| 36507 | -- | 4.14 | 0 | 61 | 44 | 58 | 5.10 | -80 | 8 | 03/31/2025 05:15 PM |
| 36506 | -- | 4.01 | 0 | 64 | 43 | 58 | 5.10 | -80 | 8 | 03/31/2025 05:00 PM |
| 36505 | -- | 4.01 | 0 | 66 | 42 | 60 | 5.10 | -80 | 8 | 03/31/2025 04:45 PM |
| 36504 | -- | 4.06 | 0 | 68 | 41 | 61 | 5.10 | -81 | 8 | 03/31/2025 04:30 PM |
| 36503 | -- | 4.14 | 0 | 67 | 42 | 60 | 5.10 | -79 | 8 | 03/31/2025 04:15 PM |
| 36502 | -- | 4.01 | 0 | 66 | 44 | 60 | 5.10 | -83 | 8 | 03/31/2025 04:00 PM |
| 36501 | -- | 4.01 | 0 | 73 | 39 | 61 | 5.10 | -80 | 8 | 03/31/2025 03:45 PM |
| 36500 | -- | 4.09 | 0 | 73 | 39 | 65 | 5.10 | -81 | 8 | 03/31/2025 03:30 PM |
| 36499 | -- | 4.01 | 0 | 70 | 40 | 65 | 5.10 | -80 | 8 | 03/31/2025 03:15 PM |
| 36498 | -- | 4.07 | 0 | 70 | 41 | 64 | 5.10 | -81 | 8 | 03/31/2025 03:00 PM |
| 36497 | 15.1 | 4.04 | 0 | 71 | 40 | 66 | 5.10 | -88 | 7 | 03/31/2025 02:45 PM |
| 36496 | -- | 4.04 | 0 | 71 | 40 | 63 | 5.10 | -80 | 8 | 03/31/2025 02:30 PM |
| 36495 | -- | 4.01 | 0 | 70 | 40 | 64 | 5.10 | -83 | 9 | 03/31/2025 02:15 PM |
| 36494 | -- | 4.10 | 0 | 69 | 40 | 65 | 5.10 | -85 | 8 | 03/31/2025 02:01 PM |
| 36493 | -- | 4.01 | 0 | 71 | 38 | 64 | 5.10 | -82 | 9 | 03/31/2025 01:45 PM |
| 36492 | -- | 4.01 | 0 | 70 | 38 | 65 | 5.10 | -83 | 8 | 03/31/2025 01:30 PM |